Weather History for HETB - November, 2012

Change the Weather History Date:

Wednesday, November 14, 2012

  Actual Average (LLOV) Record (LLOV)
Temperature  
Mean Temperature 59 °F -  
Max Temperature 68 °F 71 °F 89 °F (2010)
Min Temperature 50 °F 51 °F 46 °F (2003)
Degree Days  
Heating Degree Days 6    
Growing Degree Days 9 (Base 50)    
Moisture  
Dew Point 46 °F    
Average Humidity 65    
Maximum Humidity 100    
Minimum Humidity 37    
Precipitation  
Precipitation 0.00 in - - ()
Sea Level Pressure  
Sea Level Pressure 30.10 in    
Wind  
Wind Speed 2 mph ()    
Max Wind Speed 10 mph    
Max Gust Speed -    
Visibility 5.6 miles    
Events      
Averages and records for this station are not official NWS values.
T = Trace of Precipitation, MM = Missing Value Source: Averaged Metar Reports

Daily Weather History Graph

Daily Weather History Graph

Search for Another Location

Airport or City:

Trip Planner

Search our weather history database for the weather conditions in past years. The results will help you decide how hot, cold, wet, or windy it might be!

Date:

Astronomy

Nov. 14, 2012 Rise Set
Actual Time 6:04 AM EET 4:45 PM EET
Civil Twilight 5:39 AM EET 5:11 PM EET
Nautical Twilight 5:10 AM EET 5:39 PM EET
Astronomical Twilight 4:42 AM EET 6:08 PM EET
Moon 6:26 AM EET (11/14) 5:18 PM EET (11/14)
Length of Visible Light 11h 31m
Length of Day
10h 41m
New Moon, 0% of the Moon is Illuminated
Nov 14
New Moon
Nov 20
First Quarter
Nov 28
Full
Dec 6
Last Quarter
Dec 13
New

Hourly Weather History & Observations

Time (EET) Temp. Dew Point Humidity Pressure Visibility Wind Dir Wind Speed Gust Speed Precip Events Conditions
12:00 AM 51.8 °F 48.2 °F 88% 30.09 in - Calm Calm - N/A   Clear
1:00 AM 51.8 °F 50.0 °F 94% 30.09 in - Calm Calm - N/A   Clear
2:00 AM 51.8 °F 50.0 °F 94% 30.09 in - Calm Calm - N/A   Clear
3:00 AM 50.0 °F 50.0 °F 100% 30.09 in - Calm Calm - N/A   Clear
4:00 AM 50.0 °F 50.0 °F 100% 30.09 in - Calm Calm - N/A   Clear
5:00 AM 50.0 °F 50.0 °F 100% 30.09 in - Calm Calm - N/A   Clear
6:00 AM 50.0 °F 48.2 °F 94% 30.09 in 3.7 mi Calm Calm - N/A   Unknown
7:00 AM 50.0 °F 50.0 °F 100% 30.12 in 3.7 mi Calm Calm - N/A   Unknown
8:00 AM 55.4 °F 51.8 °F 88% 30.12 in - Calm Calm - N/A   Clear
9:00 AM 60.8 °F 48.2 °F 63% 30.12 in - Calm Calm - N/A   Clear
10:00 AM 62.6 °F 48.2 °F 59% 30.12 in - Calm Calm - N/A   Clear
11:00 AM 66.2 °F 44.6 °F 46% 30.12 in - Variable 3.5 mph - N/A   Clear
12:00 PM 66.2 °F 42.8 °F 43% 30.09 in - Calm Calm - N/A   Clear
1:00 PM 68.0 °F 42.8 °F 40% 30.09 in - Calm Calm - N/A   Clear
2:00 PM 68.0 °F 41.0 °F 37% 30.06 in 6.2 mi NNW 5.8 mph - N/A   Partly Cloudy
3:00 PM 68.0 °F 42.8 °F 40% 30.06 in 6.2 mi North 5.8 mph - N/A   Scattered Clouds
4:00 PM 68.0 °F 42.8 °F 40% 30.06 in 6.2 mi North 6.9 mph - N/A   Partly Cloudy
5:00 PM 64.4 °F 42.8 °F 45% 30.06 in 6.2 mi North 4.6 mph - N/A   Partly Cloudy
6:00 PM 64.4 °F 41.0 °F 42% 30.09 in 6.2 mi North 5.8 mph - N/A   Partly Cloudy
7:00 PM 62.6 °F 42.8 °F 48% 30.09 in 6.2 mi Calm Calm - N/A   Partly Cloudy
8:00 PM 62.6 °F 41.0 °F 45% 30.12 in - North 6.9 mph - N/A   Clear
9:00 PM 60.8 °F 42.8 °F 52% 30.12 in - North 10.4 mph - N/A   Clear
10:00 PM 60.8 °F 42.8 °F 52% 30.12 in - North 9.2 mph - N/A   Clear
11:00 PM 60.8 °F 44.6 °F 55% 30.12 in - North 8.1 mph - N/A   Clear